Location: Unspecified
(52.0178°N, 0.0000°E)
Time: 20:29:14
(UTC+00:00)

O/OREOS (USA 219) - Pass Details

Date: 27 July 2019
Orbit: 621 x 646 km, 72.0° (Epoch: 22 May)

Event Time Altitude Azimuth Distance (km) Brightness Sun altitude
Exits shadow 02:20:51 - 165° (SSE) 2,164 ? -12.9°
Reaches altitude 10° 02:21:15 10° 162° (SSE) 2,028 ? -12.9°
Maximum altitude 02:25:04 27° 105° (ESE) 1,233 ? -12.6°
Drops below altitude 10° 02:28:53 10° 48° (NE) 2,029 ? -12.2°
Sets 02:31:24 0° 37° (NE) 2,938 ? -12.0°
